TimeCST,TemperatureF,Dew PointF,Humidity,Sea Level PressureIn,VisibilityMPH,Wind Direction,Wind SpeedMPH,Gust SpeedMPH,PrecipitationIn,Events,Conditions,WindDirDegrees,DateUTC
12:56 AM,42.1,35.1,76,30.09,10.0,West,9.2,-,N/A,,Clear,280,2013-03-06 06:56:00
1:56 AM,43.0,28.0,56,30.09,10.0,NW,15.0,24.2,N/A,,Clear,320,2013-03-06 07:56:00
2:56 AM,42.1,26.1,53,30.10,10.0,NW,13.8,27.6,N/A,,Clear,310,2013-03-06 08:56:00
3:56 AM,39.9,25.0,55,30.12,10.0,NW,10.4,19.6,N/A,,Clear,310,2013-03-06 09:56:00
4:56 AM,39.0,24.1,55,30.14,10.0,NW,15.0,23.0,N/A,,Clear,320,2013-03-06 10:56:00
5:56 AM,37.9,23.0,55,30.17,10.0,NW,8.1,16.1,N/A,,Clear,310,2013-03-06 11:56:00
6:56 AM,37.9,24.1,57,30.19,10.0,WNW,9.2,-,N/A,,Clear,300,2013-03-06 12:56:00
8:56 AM,41.0,23.0,49,30.22,10.0,WNW,15.0,24.2,N/A,,Clear,300,2013-03-06 14:56:00
9:56 AM,43.0,23.0,45,30.22,10.0,NW,18.4,28.8,N/A,,Clear,310,2013-03-06 15:56:00
11:56 AM,46.9,24.1,41,30.20,10.0,West,13.8,20.7,N/A,,Clear,280,2013-03-06 17:56:00
12:56 PM,48.9,25.0,39,30.19,10.0,NW,12.7,25.3,N/A,,Clear,310,2013-03-06 18:56:00
1:56 PM,50.0,25.0,38,30.18,10.0,NNW,8.1,24.2,N/A,,Clear,330,2013-03-06 19:56:00
2:56 PM,51.1,26.1,38,30.18,10.0,NNW,12.7,24.2,N/A,,Clear,330,2013-03-06 20:56:00
3:56 PM,51.1,27.0,39,30.18,10.0,NNW,13.8,23.0,N/A,,Clear,330,2013-03-06 21:56:00
4:56 PM,50.0,27.0,41,30.17,10.0,NW,13.8,18.4,N/A,,Clear,320,2013-03-06 22:56:00
5:56 PM,46.9,27.0,46,30.19,10.0,NNW,8.1,-,N/A,,Clear,330,2013-03-06 23:56:00
6:56 PM,45.0,28.0,52,30.22,10.0,NW,6.9,-,N/A,,Clear,320,2013-03-07 00:56:00
7:56 PM,43.0,28.0,56,30.24,10.0,NNW,4.6,-,N/A,,Clear,340,2013-03-07 01:56:00
8:56 PM,41.0,28.0,60,30.24,10.0,NNW,5.8,-,N/A,,Clear,330,2013-03-07 02:56:00
9:56 PM,39.0,28.0,65,30.25,10.0,NW,4.6,-,N/A,,Clear,320,2013-03-07 03:56:00
10:56 PM,37.9,28.0,68,30.25,10.0,North,3.5,-,N/A,,Clear,350,2013-03-07 04:56:00
11:56 PM,37.0,28.0,70,30.25,10.0,NNW,5.8,-,N/A,,Clear,330,2013-03-07 05:56:00